Location: Ferchesar
(52.6477°N, 12.4298°E)
Time: 15:56:45
(UTC+01:00)

deb Explorer IX - Pass Details

Date: 14 December 2021
Orbit: 544 x 1082 km, 38.8° (Epoch: 18 January)

Event Time Altitude Azimuth Distance (km) Brightness Sun altitude
Rises 08:43:00 0° 246° (WSW) 3,501 ? 2.4°
Reaches altitude 10° 08:46:28 10° 229° (SW) 2,447 ? 2.7°
Maximum altitude 08:50:17 18° 188° (S) 1,806 ? 3.1°
Drops below altitude 10° 08:53:45 10° 145° (SE) 2,194 ? 3.5°
Sets 08:56:39 0° 126° (SE) 3,011 ? 3.8°
